Glasgow, KY

7:39 PM CDT on May 28, 2017 (GMT -0500)
Glasgow Municipal

Weather History for KGLW - October, 2012

Change the Weather History Date:

Tuesday, October 9, 2012

  Actual Average Record
Temperature  
Mean Temperature 51 °F -  
Max Temperature 63 °F 71 °F 86 °F (1980)
Min Temperature 39 °F 47 °F 33 °F (1978)
Degree Days  
Heating Degree Days 14    
Growing Degree Days 1 (Base 50)    
Moisture  
Dew Point 40 °F    
Average Humidity 62    
Maximum Humidity 100    
Minimum Humidity 40    
Precipitation  
Precipitation 0.00 in - - ()
Sea Level Pressure  
Sea Level Pressure 30.10 in    
Wind  
Wind Speed 1 mph (South)    
Max Wind Speed 6 mph    
Max Gust Speed -    
Visibility 9 miles    
Events Fog    
Averages and records for this station are not official NWS values.
T = Trace of Precipitation, MM = Missing Value Source: NWS Daily Summary

Daily Weather History Graph

Daily Weather History Graph

Search for Another Location

Airport or City:

Trip Planner

Search our weather history database for the weather conditions in past years. The results will help you decide how hot, cold, wet, or windy it might be!

Date:

Astronomy

Oct. 09, 2012 Rise Set
Actual Time 6:46 AM CDT 6:14 PM CDT
Civil Twilight 6:20 AM CDT 6:40 PM CDT
Nautical Twilight 5:50 AM CDT 7:10 PM CDT
Astronomical Twilight 5:20 AM CDT 7:40 PM CDT
Moon 12:30 AM CDT (10/9) 2:34 PM CDT (10/9)
Length of Visible Light 12h 20m
Length of Day
11h 28m
Last Quarter, 36% of the Moon is Illuminated
Oct 9
Last Quarter
Oct 15
New
Oct 21
First Quarter
Oct 29
Full
Nov 6
Last Quarter

Hourly Weather History & Observations

Time (CDT) Temp. Dew Point Humidity Pressure Visibility Wind Dir Wind Speed Gust Speed Precip Events Conditions
12:15 AM 40.6 °F 40.5 °F 99% 30.17 in 10.0 mi Calm Calm - N/A   Clear
12:35 AM 40.8 °F 40.8 °F 100% 30.17 in 10.0 mi Calm Calm - N/A   Clear
12:55 AM 39.4 °F 39.4 °F 100% 30.16 in 7.0 mi Calm Calm - N/A   Clear
1:15 AM 39.6 °F 39.6 °F 100% 30.16 in 7.0 mi Calm Calm - N/A   Clear
1:35 AM 39.2 °F 39.2 °F 100% 30.16 in 7.0 mi Calm Calm - N/A   Clear
1:55 AM - - N/A% 30.16 in 4.0 mi Calm Calm - N/A   Haze
2:15 AM - - N/A% 30.16 in 5.0 mi Calm Calm - N/A   Haze
2:35 AM - - N/A% 30.16 in 5.0 mi Calm Calm - N/A   Haze
3:15 AM - - N/A% 30.15 in 2.5 mi Calm Calm - N/A   Scattered Clouds
3:35 AM - - N/A% 30.16 in 3.0 mi Calm Calm - N/A   Clear
3:55 AM - - N/A% 30.16 in 7.0 mi Calm Calm - N/A   Clear
4:15 AM - - N/A% 30.16 in 1.5 mi Calm Calm - N/A   Mist
4:35 AM - - N/A% 30.16 in 0.5 mi Calm Calm - N/A Fog Fog
4:55 AM - - N/A% 30.16 in 3.0 mi Calm Calm - N/A   Clear
5:15 AM - - N/A% 30.16 in 4.0 mi Calm Calm - N/A   Haze
5:35 AM - - N/A% 30.16 in 7.0 mi Calm Calm - N/A   Clear
5:55 AM - - N/A% 30.17 in 5.0 mi Calm Calm - N/A   Haze
6:15 AM - - N/A% 30.17 in 7.0 mi Calm Calm - N/A   Clear
6:35 AM - - N/A% 30.17 in 4.0 mi Calm Calm - N/A   Haze
7:15 AM - - N/A% 30.17 in 4.0 mi Calm Calm - N/A   Haze
7:35 AM - - N/A% 30.17 in 5.0 mi Calm Calm - N/A   Haze
7:55 AM - - N/A% 30.18 in 10.0 mi Calm Calm - N/A   Clear
8:15 AM - - N/A% 30.18 in 10.0 mi Calm Calm - N/A   Clear
8:35 AM - - N/A% 30.18 in 10.0 mi Calm Calm - N/A   Clear
8:55 AM 46.0 °F 45.9 °F 99% 30.18 in 10.0 mi Calm Calm - N/A   Clear
9:15 AM 49.1 °F 47.3 °F 93% 30.18 in 10.0 mi Calm Calm - N/A   Clear
9:35 AM 51.4 °F 43.9 °F 75% 30.18 in 10.0 mi Calm Calm - N/A   Clear
9:55 AM 53.2 °F 42.4 °F 67% 30.18 in 10.0 mi SW 3.5 mph - N/A   Clear
10:15 AM 55.2 °F 41.5 °F 60% 30.17 in 10.0 mi SSW 4.6 mph - N/A   Clear
10:35 AM 56.5 °F 39.9 °F 54% 30.17 in 10.0 mi South 3.5 mph - N/A   Clear
10:55 AM 57.0 °F 39.6 °F 52% 30.16 in 10.0 mi West 3.5 mph - N/A   Clear
11:15 AM 57.9 °F 39.7 °F 51% 30.16 in 10.0 mi Calm Calm - N/A   Clear
11:35 AM 58.5 °F 38.7 °F 48% 30.16 in 10.0 mi SW 3.5 mph - N/A   Clear
11:55 AM 59.4 °F 38.5 °F 46% 30.15 in 10.0 mi Calm Calm - N/A   Clear
12:15 PM 60.1 °F 38.1 °F 44% 30.14 in 10.0 mi SSE 5.8 mph - N/A   Clear
12:35 PM 60.3 °F 38.1 °F 44% 30.13 in 10.0 mi South 5.8 mph - N/A   Clear
12:55 PM 61.0 °F 38.8 °F 44% 30.12 in 10.0 mi Calm Calm - N/A   Clear
1:15 PM 61.0 °F 38.8 °F 44% 30.10 in 10.0 mi West 3.5 mph - N/A   Clear
1:35 PM 61.7 °F 39.0 °F 43% 30.09 in 10.0 mi SSW 3.5 mph - N/A   Clear
1:55 PM 62.2 °F 39.2 °F 43% 30.08 in 10.0 mi Calm Calm - N/A   Clear
2:15 PM 62.6 °F 38.8 °F 42% 30.08 in 10.0 mi Calm Calm - N/A   Clear
2:35 PM 63.1 °F 39.4 °F 42% 30.07 in 10.0 mi South 5.8 mph - N/A   Clear
2:55 PM 63.3 °F 39.2 °F 41% 30.05 in 10.0 mi SE 4.6 mph - N/A   Clear
3:15 PM 63.5 °F 38.8 °F 40% 30.05 in 10.0 mi SSE 5.8 mph - N/A   Clear
3:35 PM 63.3 °F 38.8 °F 40% 30.04 in 10.0 mi SSE 5.8 mph - N/A   Clear
3:55 PM 63.5 °F 38.7 °F 40% 30.04 in 10.0 mi SSE 5.8 mph - N/A   Clear
4:15 PM 63.5 °F 38.7 °F 40% 30.04 in 10.0 mi South 4.6 mph - N/A   Clear
4:35 PM 63.0 °F 38.3 °F 40% 30.04 in 10.0 mi SE 4.6 mph - N/A   Clear
4:55 PM 62.6 °F 39.6 °F 43% 30.03 in 10.0 mi SSE 3.5 mph - N/A   Clear
5:15 PM 62.2 °F 40.1 °F 44% 30.03 in 10.0 mi SSE 3.5 mph - N/A   Clear
5:35 PM 61.5 °F 39.9 °F 45% 30.02 in 10.0 mi South 4.6 mph - N/A   Clear
5:55 PM 60.6 °F 39.7 °F 46% 30.02 in 10.0 mi SSE 4.6 mph - N/A   Clear
6:15 PM 59.2 °F 39.4 °F 48% 30.02 in 10.0 mi South 3.5 mph - N/A   Clear
6:35 PM 57.9 °F 39.7 °F 51% 30.03 in 10.0 mi Calm Calm - N/A   Clear
6:55 PM 56.8 °F 40.1 °F 54% 30.03 in 10.0 mi South 4.6 mph - N/A   Clear
7:15 PM 55.4 °F 40.5 °F 57% 30.03 in 10.0 mi South 4.6 mph - N/A   Clear
7:35 PM 54.7 °F 40.8 °F 60% 30.03 in 10.0 mi SSW 3.5 mph - N/A   Clear
7:55 PM 52.9 °F 40.8 °F 64% 30.03 in 10.0 mi Calm Calm - N/A   Clear
8:15 PM 52.2 °F 40.8 °F 65% 30.03 in 10.0 mi Calm Calm - N/A   Clear
8:35 PM 50.7 °F 40.5 °F 68% 30.03 in 10.0 mi Calm Calm - N/A   Clear
8:55 PM 48.4 °F 40.3 °F 74% 30.03 in 10.0 mi Calm Calm - N/A   Clear
9:15 PM 48.0 °F 40.8 °F 76% 30.03 in 10.0 mi Calm Calm - N/A   Clear
9:35 PM 48.2 °F 40.8 °F 76% 30.03 in 10.0 mi Calm Calm - N/A   Clear
9:55 PM 49.1 °F 40.5 °F 72% 30.02 in 10.0 mi Calm Calm - N/A   Clear
10:15 PM 48.9 °F 40.6 °F 73% 30.02 in 10.0 mi Calm Calm - N/A   Clear
10:35 PM 48.4 °F 40.6 °F 75% 30.02 in 10.0 mi Calm Calm - N/A   Clear
10:55 PM 47.7 °F 40.8 °F 77% 30.02 in 10.0 mi Calm Calm - N/A   Clear
11:15 PM 46.8 °F 41.0 °F 80% 30.02 in 10.0 mi Calm Calm - N/A   Clear
11:35 PM 46.0 °F 41.2 °F 83% 30.02 in 10.0 mi Calm Calm - N/A   Clear
11:55 PM 46.8 °F 42.1 °F 84% 30.02 in 10.0 mi Calm Calm - N/A   Clear